Siloam Springs, AR

11:27 PM CDT on April 29, 2017 (GMT -0500)
Smith

Weather History for KSLG - January, 2012

Change the Weather History Date:

Tuesday, January 17, 2012

  Actual Average Record
Temperature  
Mean Temperature 44 °F -  
Max Temperature 64 °F 44 °F 66 °F (2000)
Min Temperature 23 °F 27 °F -2 °F (1997)
Degree Days  
Heating Degree Days 22    
Moisture  
Dew Point 24 °F    
Average Humidity 60    
Maximum Humidity 77    
Minimum Humidity 41    
Precipitation  
Precipitation 0.00 in - - ()
Sea Level Pressure  
Sea Level Pressure 30.16 in    
Wind  
Wind Speed 16 mph (NW)    
Max Wind Speed 26 mph    
Max Gust Speed 40 mph    
Visibility 10 miles    
Events      
Averages and records for this station are not official NWS values.
T = Trace of Precipitation, MM = Missing Value Source: NWS Daily Summary

Daily Weather History Graph

Daily Weather History Graph

Search for Another Location

Airport or City:

Trip Planner

Search our weather history database for the weather conditions in past years. The results will help you decide how hot, cold, wet, or windy it might be!

Date:

Astronomy

Jan. 17, 2012 Rise Set
Actual Time 7:27 AM CST 5:28 PM CST
Civil Twilight 6:59 AM CST 5:56 PM CST
Nautical Twilight 6:28 AM CST 6:27 PM CST
Astronomical Twilight 5:57 AM CST 6:58 PM CST
Moon 1:49 AM CST (1/17) 12:21 PM CST (1/17)
Length of Visible Light 10h 56m
Length of Day
10h 00m
Waning Crescent, 35% of the Moon is Illuminated
Jan 17
Waning Crescent
Jan 23
New
Jan 30
First Quarter
Feb 7
Full
Feb 14
Last Quarter

Hourly Weather History & Observations

Time (CST) Temp. Windchill Dew Point Humidity Pressure Visibility Wind Dir Wind Speed Gust Speed Precip Events Conditions
12:15 AM 64.4 °F - 55.4 °F 73% 29.78 in 10.0 mi SSW 17.3 mph 27.6 mph N/A   Mostly Cloudy
12:35 AM 62.6 °F - 55.4 °F 77% 29.77 in 10.0 mi South 17.3 mph - N/A   Scattered Clouds
12:55 AM 62.6 °F - 55.4 °F 77% 29.77 in 10.0 mi SSW 16.1 mph 25.3 mph N/A   Partly Cloudy
1:15 AM 62.6 °F - 55.4 °F 77% 29.76 in 10.0 mi South 18.4 mph 21.9 mph N/A   Clear
1:35 AM 62.6 °F - 55.4 °F 77% 29.76 in 10.0 mi South 20.7 mph 24.2 mph N/A   Clear
1:55 AM 62.6 °F - 55.4 °F 77% 29.76 in 10.0 mi South 15.0 mph 24.2 mph N/A   Clear
2:15 AM 62.6 °F - 53.6 °F 72% 29.77 in 10.0 mi South 15.0 mph - N/A   Clear
2:35 AM 62.6 °F - 53.6 °F 72% 29.79 in 10.0 mi SSW 20.7 mph 26.5 mph N/A   Clear
2:55 AM 62.6 °F - 53.6 °F 72% 29.79 in 10.0 mi SSW 20.7 mph - N/A   Partly Cloudy
3:35 AM 62.6 °F - 53.6 °F 72% 29.81 in 10.0 mi SW 18.4 mph 24.2 mph N/A   Mostly Cloudy
3:55 AM 62.6 °F - 53.6 °F 72% 29.82 in 10.0 mi SW 21.9 mph 25.3 mph N/A   Mostly Cloudy
4:15 AM 53.6 °F - 39.2 °F 58% 29.88 in 10.0 mi WNW 24.2 mph 40.3 mph N/A   Mostly Cloudy
4:35 AM 44.6 °F 35.5 °F 35.6 °F 71% 29.91 in 10.0 mi WNW 25.3 mph 31.1 mph N/A   Scattered Clouds
4:55 AM 42.8 °F 32.9 °F 32.0 °F 66% 29.95 in 10.0 mi NW 26.5 mph 32.2 mph N/A   Mostly Cloudy
5:15 AM 39.2 °F 29.3 °F 28.4 °F 65% 29.97 in 10.0 mi WNW 20.7 mph 29.9 mph N/A   Mostly Cloudy
5:35 AM 37.4 °F 26.6 °F 26.6 °F 65% 30.00 in 10.0 mi WNW 21.9 mph 27.6 mph N/A   Partly Cloudy
6:15 AM 33.8 °F 22.5 °F 24.8 °F 70% 30.05 in 10.0 mi NW 19.6 mph 26.5 mph N/A   Clear
6:35 AM 33.8 °F 25.8 °F 23.0 °F 65% 30.07 in 10.0 mi WNW 10.4 mph 16.1 mph N/A   Clear
6:55 AM 32.0 °F 20.8 °F 23.0 °F 69% 30.09 in 10.0 mi WNW 17.3 mph 21.9 mph N/A   Clear
7:35 AM 30.2 °F 18.5 °F 19.4 °F 64% 30.12 in 10.0 mi NW 17.3 mph 23.0 mph N/A   Clear
7:55 AM 30.2 °F 18.1 °F 19.4 °F 64% 30.14 in 10.0 mi NW 18.4 mph 21.9 mph N/A   Clear
8:15 AM 30.2 °F 19.8 °F 19.4 °F 64% 30.16 in 10.0 mi WNW 13.8 mph - N/A   Clear
8:35 AM 28.4 °F 15.8 °F 17.6 °F 64% 30.18 in 10.0 mi NW 18.4 mph 25.3 mph N/A   Clear
9:15 AM 28.4 °F 14.4 °F 17.6 °F 64% 30.22 in 10.0 mi NW 23.0 mph - N/A   Scattered Clouds
9:35 AM 28.4 °F 15.1 °F 17.6 °F 64% 30.23 in 10.0 mi WNW 20.7 mph 24.2 mph N/A   Scattered Clouds
9:55 AM 28.4 °F 15.8 °F 15.8 °F 59% 30.23 in 10.0 mi NW 18.4 mph 23.0 mph N/A   Partly Cloudy
10:15 AM 28.4 °F 17.0 °F 15.8 °F 59% 30.25 in 10.0 mi NW 15.0 mph 24.2 mph N/A   Clear
10:35 AM 28.4 °F 15.8 °F 15.8 °F 59% 30.26 in 10.0 mi NW 18.4 mph - N/A   Clear
10:55 AM 30.2 °F 18.1 °F 15.8 °F 55% 30.27 in 10.0 mi NW 18.4 mph 24.2 mph N/A   Clear
11:15 AM 30.2 °F 18.5 °F 15.8 °F 55% 30.27 in 10.0 mi NW 17.3 mph 24.2 mph N/A   Clear
11:35 AM 30.2 °F 18.1 °F 15.8 °F 55% 30.26 in 10.0 mi NW 18.4 mph 23.0 mph N/A   Clear
11:55 AM 32.0 °F 21.2 °F 15.8 °F 51% 30.26 in 10.0 mi NW 16.1 mph - N/A   Clear
12:15 PM 33.8 °F 23.9 °F 17.6 °F 52% 30.26 in 10.0 mi NW 15.0 mph 20.7 mph N/A   Clear
12:35 PM 33.8 °F 23.2 °F 17.6 °F 52% 30.26 in 10.0 mi NW 17.3 mph - N/A   Clear
12:55 PM 33.8 °F 22.5 °F 17.6 °F 52% 30.25 in 10.0 mi NNW 19.6 mph - N/A   Clear
1:35 PM 35.6 °F 25.9 °F 17.6 °F 48% 30.24 in 10.0 mi NW 16.1 mph 25.3 mph N/A   Clear
1:55 PM 35.6 °F 26.6 °F 17.6 °F 48% 30.24 in 10.0 mi NW 13.8 mph - N/A   Clear
2:15 PM 35.6 °F 25.9 °F 17.6 °F 48% 30.24 in 10.0 mi NW 16.1 mph 21.9 mph N/A   Clear
2:35 PM 35.6 °F 26.2 °F 17.6 °F 48% 30.25 in 10.0 mi NNW 15.0 mph 18.4 mph N/A   Clear
2:55 PM 37.4 °F 27.8 °F 17.6 °F 45% 30.26 in 10.0 mi NW 17.3 mph - N/A   Clear
3:15 PM 37.4 °F 27.8 °F 15.8 °F 41% 30.26 in 10.0 mi NW 17.3 mph - N/A   Clear
3:35 PM 35.6 °F 25.9 °F 15.8 °F 44% 30.28 in 10.0 mi NW 16.1 mph - N/A   Clear
3:55 PM 35.6 °F 25.2 °F 15.8 °F 44% 30.29 in 10.0 mi NW 18.4 mph - N/A   Clear
4:35 PM 35.6 °F 26.6 °F 17.6 °F 48% 30.29 in 10.0 mi NW 13.8 mph - N/A   Clear
4:55 PM 33.8 °F 24.8 °F 15.8 °F 48% 30.29 in 10.0 mi NNW 12.7 mph - N/A   Clear
5:15 PM 33.8 °F 24.8 °F 15.8 °F 48% 30.30 in 10.0 mi NNW 12.7 mph 17.3 mph N/A   Clear
5:35 PM 32.0 °F 23.0 °F 15.8 °F 51% 30.30 in 10.0 mi NNW 11.5 mph - N/A   Clear
5:55 PM 30.2 °F 21.9 °F 15.8 °F 55% 30.30 in 10.0 mi NNW 9.2 mph - N/A   Clear
6:15 PM 30.2 °F 21.9 °F 15.8 °F 55% 30.30 in 10.0 mi NNW 9.2 mph - N/A   Clear
6:35 PM 28.4 °F 19.7 °F 15.8 °F 59% 30.31 in 10.0 mi NNW 9.2 mph - N/A   Clear
6:55 PM 28.4 °F 20.4 °F 15.8 °F 59% 30.31 in 10.0 mi North 8.1 mph - N/A   Clear
7:15 PM 28.4 °F 20.4 °F 15.8 °F 59% 30.32 in 10.0 mi North 8.1 mph - N/A   Clear
7:35 PM 26.6 °F 21.2 °F 15.8 °F 64% 30.33 in 10.0 mi NNW 4.6 mph - N/A   Clear
7:55 PM 26.6 °F 20.0 °F 14.0 °F 59% 30.35 in 10.0 mi NNW 5.8 mph - N/A   Clear
8:15 PM 26.6 °F 16.8 °F 14.0 °F 59% 30.34 in 10.0 mi NNW 10.4 mph - N/A   Clear
8:35 PM 26.6 °F 22.6 °F 14.0 °F 59% 30.35 in 10.0 mi NNW 3.5 mph - N/A   Clear
8:55 PM 26.6 °F 20.0 °F 14.0 °F 59% 30.36 in 10.0 mi NW 5.8 mph - N/A   Clear
9:15 PM 24.8 °F 16.9 °F 12.2 °F 59% 30.37 in 10.0 mi NNW 6.9 mph - N/A   Clear
9:35 PM 24.8 °F 16.9 °F 12.2 °F 59% 30.36 in 10.0 mi North 6.9 mph - N/A   Clear
9:55 PM 24.8 °F 17.9 °F 14.0 °F 64% 30.37 in 10.0 mi NNW 5.8 mph - N/A   Clear
10:15 PM 23.0 °F 17.0 °F 12.2 °F 63% 30.37 in 10.0 mi NNW 4.6 mph - N/A   Clear
10:35 PM 23.0 °F 17.0 °F 12.2 °F 63% 30.37 in 10.0 mi NNW 4.6 mph - N/A   Clear
10:55 PM 24.8 °F 19.1 °F 12.2 °F 59% 30.37 in 10.0 mi NNW 4.6 mph - N/A   Clear
11:15 PM 23.0 °F 17.0 °F 12.2 °F 63% 30.37 in 10.0 mi NNW 4.6 mph - N/A   Clear
11:35 PM 24.8 °F 19.1 °F 12.2 °F 59% 30.38 in 10.0 mi NNW 4.6 mph - N/A   Clear
11:55 PM 23.0 °F 18.4 °F 14.0 °F 68% 30.37 in 10.0 mi North 3.5 mph - N/A   Clear